This is the latest recevied weather packets stored in our database for station/object K5MGY. If no packets are shown the sender has not sent any weather packets the latest 10 day(s).
| Time | Temp. | Humidity | Pressure | Rain* | Wind** | Luminosity | Snow |
|---|---|---|---|---|---|---|---|
| 1777830809 | 27.78° C | 36% | 1044.4 hPa | 0 mm | - | 753 W/m² | - |
| 1777830509 | 27.22° C | 39% | 1044.7 hPa | 0 mm | - | 744 W/m² | - |
| 1777830207 | 26.67° C | 39% | 1044.6 hPa | 0 mm | - | 751 W/m² | - |
| 1777829902 | 26.67° C | 38% | 1044.6 hPa | 0 mm | - | 739 W/m² | - |
| 1777829599 | 27.22° C | 38% | 1044.7 hPa | 0 mm | - | 740 W/m² | - |
| 1777829296 | 27.22° C | 40% | 1044.9 hPa | 0 mm | - | 733 W/m² | - |
| 1777828994 | 27.78° C | 38% | 1045 hPa | 0 mm | - | 726 W/m² | - |
| 1777828689 | 27.78° C | 40% | 1045.1 hPa | 0 mm | - | 719 W/m² | - |
| 1777828386 | 27.22° C | 40% | 1045.2 hPa | 0 mm | - | 717 W/m² | - |
| 1777828084 | 26.67° C | 41% | 1045.2 hPa | 0 mm | - | 706 W/m² | - |
| 1777827780 | 27.22° C | 39% | 1045.4 hPa | 0 mm | - | 703 W/m² | - |
| 1777827477 | 27.22° C | 40% | 1045.5 hPa | 0 mm | - | 695 W/m² | - |
| 1777827175 | 26.67° C | 42% | 1045.8 hPa | 0 mm | - | 693 W/m² | - |
| 1777826870 | 26.67° C | 42% | 1045.8 hPa | 0 mm | - | 683 W/m² | - |
| 1777826568 | 26.67° C | 42% | 1045.7 hPa | 0 mm | - | 674 W/m² | - |
| 1777826264 | 26.11° C | 41% | 1045.8 hPa | 0 mm | - | 664 W/m² | - |
| 1777825963 | 26.11° C | 43% | 1045.8 hPa | 0 mm | - | 656 W/m² | - |
| 1777825658 | 25.56° C | 43% | 1045.9 hPa | 0 mm | - | 647 W/m² | - |
| 1777825357 | 25.56° C | 42% | 1045.8 hPa | 0 mm | - | 638 W/m² | - |
| 1777825053 | 25.56° C | 41% | 1045.8 hPa | 0 mm | - | 626 W/m² | - |
| 1777824749 | 25.56° C | 43% | 1046 hPa | 0 mm | - | 616 W/m² | - |
| 1777824446 | 25° C | 45% | 1046.1 hPa | 0 mm | - | 604 W/m² | - |
| 1777824142 | 24.44° C | 46% | 1046 hPa | 0 mm | - | 593 W/m² | - |
| 1777823839 | 24.44° C | 45% | 1046.1 hPa | 0 mm | - | 583 W/m² | - |
| 1777823537 | 24.44° C | 45% | 1046.1 hPa | 0 mm | - | 572 W/m² | - |
* Rain latest hour (hover to see other rain measurements)
** Current wind speed in m/s (hover to see current wind gust speed)